Stations météo

réclame
Mon MeteoGroup
Torpshammar, Suède (2343): Température de l'air & dewpoint: 15.05.2018 19:00:00 - 21.05.2018 19:00:00 (CEST)Torpshammar, Suède (2343): Vitesse du vent & gusts: 15.05.2018 19:00:00 - 21.05.2018 19:00:00 (CEST)Torpshammar, Suède (2343): Direction du vent: 15.05.2018 19:00:00 - 21.05.2018 19:00:00 (CEST)Torpshammar, Suède (2343): reduced air pressure: 15.05.2018 19:00:00 - 21.05.2018 19:00:00 (CEST)Torpshammar, Suède (2343): visibility: 15.05.2018 19:00:00 - 21.05.2018 19:00:00 (CEST)Torpshammar, Suède (2343): Quantités de précipitations: 15.05.2018 19:00:00 - 21.05.2018 19:00:00 (CEST)
Date & Time tt [°C] td [°C] ff [km/h] ff [knt] fx [km/h] fx [knt] dd ppp [hPa] vv [km] rr [mm]
21.05.2018 19:00:00 - - - - - - - - - -
21.05.2018 18:00:00 26,9 5,2 2 1 12 7 N 1019,8 47 0,0
21.05.2018 17:00:00 26,4 3,6 5 3 14 8 W 1020,1 46 0,0
21.05.2018 16:00:00 26,1 5,6 5 3 10 5 W 1020,5 34 0,0
21.05.2018 15:00:00 25,7 5,8 4 2 13 7 WSW 1020,8 40 0,0
21.05.2018 14:00:00 24,8 5,6 5 3 15 8 WNW 1021,2 49 0,0
21.05.2018 13:00:00 23,6 7,2 6 4 15 8 W 1021,4 38 0,0
21.05.2018 12:00:00 22,6 7,6 8 4 19 10 WNW 1021,6 44 0,0
21.05.2018 11:00:00 21,5 5,8 6 3 16 9 NW 1021,8 42 0,0
21.05.2018 10:00:00 20,7 7,3 6 3 16 9 W 1022,0 39 0,0
21.05.2018 09:00:00 19,3 8,3 2 1 8 5 W 1022,1 38 0,0
21.05.2018 08:00:00 16,7 7,3 0 0 4 2 N 1022,2 50 0,0
21.05.2018 07:00:00 11,6 8,1 2 1 5 3 SSE 1022,3 50 0,0
21.05.2018 06:00:00 8,2 6,2 0 0 2 1 N 1022,5 50 0,0
21.05.2018 05:00:00 6,3 4,5 0 0 6 4 N 1022,4 50 0,0
21.05.2018 04:00:00 6,3 4,0 0 0 5 3 N 1022,1 50 0,0
21.05.2018 03:00:00 6,8 3,9 0 0 4 2 N 1021,8 50 0,0
21.05.2018 02:00:00 8,2 4,0 0 0 5 3 N 1021,4 50 0,0
21.05.2018 01:00:00 9,9 4,3 0 0 9 5 N 1020,8 50 0,0
21.05.2018 00:00:00 11,4 4,8 0 0 7 4 N 1020,5 50 0,0
20.05.2018 23:00:00 12,0 5,2 0 0 8 4 N 1020,3 50 0,0
20.05.2018 22:00:00 15,9 6,1 2 1 8 4 NW 1019,9 50 0,0
20.05.2018 21:00:00 22,5 2,0 4 2 14 8 WSW 1019,0 50 0,0
20.05.2018 20:00:00 22,6 1,6 6 4 22 12 SW 1018,7 50 0,0
20.05.2018 19:00:00 23,7 0,7 6 3 21 12 WSW 1018,6 50 0,0
20.05.2018 18:00:00 24,1 2,8 5 3 18 10 W 1018,6 49 0,0
20.05.2018 17:00:00 24,1 2,3 7 4 27 15 SW 1018,6 50 0,0
20.05.2018 16:00:00 24,7 2,2 11 6 25 14 WSW 1018,7 44 0,0
20.05.2018 15:00:00 25,1 1,2 7 4 31 17 SW 1018,6 44 0,0
20.05.2018 14:00:00 25,2 2,0 10 5 27 15 SSW 1018,9 40 0,0
20.05.2018 13:00:00 24,1 3,4 11 6 29 16 WSW 1019,2 44 0,0
20.05.2018 12:00:00 22,9 5,8 9 5 24 13 SW 1019,9 40 0,0
20.05.2018 11:00:00 18,9 7,0 3 2 9 5 SSE 1020,6 50 0,0
20.05.2018 10:00:00 15,6 6,6 2 1 7 4 SSE 1021,6 50 0,0
20.05.2018 09:00:00 13,0 5,4 0 0 4 2 N 1022,2 44 0,0
20.05.2018 08:00:00 9,8 5,6 0 0 5 3 N 1022,2 50 0,0
20.05.2018 07:00:00 7,3 4,3 0 0 3 2 N 1022,4 50 0,0
20.05.2018 06:00:00 4,6 3,7 0 0 2 1 N 1022,4 50 0,0
20.05.2018 05:00:00 2,3 1,7 0 0 4 2 N 1022,7 50 0,0
20.05.2018 04:00:00 2,5 1,5 0 0 4 2 N 1022,6 50 0,0
20.05.2018 03:00:00 3,3 1,8 0 0 3 2 N 1022,7 50 0,0
20.05.2018 02:00:00 3,9 2,1 0 0 3 1 N 1022,4 50 0,0
20.05.2018 01:00:00 4,8 2,2 0 0 5 3 N 1022,4 50 0,0
20.05.2018 00:00:00 6,5 2,8 0 0 4 2 N 1021,8 50 0,0
19.05.2018 23:00:00 7,9 3,6 0 0 4 2 N 1021,0 50 0,0
19.05.2018 22:00:00 11,1 2,9 0 0 7 4 N 1020,5 50 0,0
19.05.2018 21:00:00 14,9 4,9 0 0 8 5 N 1019,9 50 0,0
19.05.2018 20:00:00 19,6 0,6 0 0 13 7 N 1019,4 50 0,0
19.05.2018 19:00:00 21,0 -2,2 0 0 11 6 N 1019,0 50 0,0
19.05.2018 18:00:00 21,1 0,3 6 4 21 11 WNW 1019,1 50 0,0
19.05.2018 17:00:00 20,5 1,4 8 4 18 10 WNW 1019,2 47 0,0
19.05.2018 16:00:00 20,8 2,6 10 5 21 12 WNW 1019,0 48 0,0
19.05.2018 15:00:00 20,6 2,9 10 5 21 11 WNW 1019,1 46 0,0
19.05.2018 14:00:00 20,2 3,8 6 3 16 8 SW 1019,5 50 0,0
19.05.2018 13:00:00 19,5 1,9 7 4 16 9 W 1020,0 45 0,0
19.05.2018 12:00:00 18,3 1,7 5 3 14 7 WSW 1020,4 45 0,0
19.05.2018 11:00:00 17,0 2,2 6 3 13 7 SW 1021,0 41 0,0
19.05.2018 10:00:00 14,3 3,7 4 2 7 4 WSW 1021,4 36 0,0
19.05.2018 09:00:00 11,3 2,6 3 2 7 4 SW 1021,8 49 0,0
19.05.2018 08:00:00 7,5 2,2 2 1 5 3 W 1022,2 50 0,0
19.05.2018 07:00:00 4,2 2,1 0 0 4 2 N 1022,4 50 0,0
19.05.2018 06:00:00 1,4 0,7 0 0 3 2 N 1022,7 50 0,0
19.05.2018 05:00:00 -0,9 -1,6 0 0 3 1 N 1022,8 50 0,0
19.05.2018 04:00:00 -1,1 -1,7 0 0 2 1 N 1022,7 50 0,0
19.05.2018 03:00:00 -0,5 -1,3 0 0 3 2 N 1022,7 50 0,0
19.05.2018 02:00:00 0,3 -0,8 0 0 3 2 N 1022,6 50 0,0
19.05.2018 01:00:00 1,3 -0,2 0 0 3 2 N 1022,2 50 0,0
19.05.2018 00:00:00 2,8 0,5 0 0 3 2 N 1022,0 50 0,0
18.05.2018 23:00:00 4,4 0,9 0 0 4 2 N 1021,6 50 0,0
18.05.2018 22:00:00 6,8 1,7 0 0 3 2 N 1021,0 50 0,0
18.05.2018 21:00:00 11,2 1,2 0 0 13 7 N 1020,5 50 0,0
18.05.2018 20:00:00 15,4 -0,4 3 1 18 10 N 1020,1 48 0,0
18.05.2018 19:00:00 16,2 -0,5 4 2 20 11 N 1019,9 50 0,0
18.05.2018 18:00:00 15,9 0,1 4 2 32 17 NNE 1020,0 46 0,0
18.05.2018 17:00:00 15,8 -1,7 11 6 29 15 WNW 1019,9 50 0,0
18.05.2018 16:00:00 14,6 -1,5 16 9 29 16 NW 1020,1 43 0,0
18.05.2018 15:00:00 15,2 -0,2 16 8 29 15 WNW 1020,2 39 0,0
18.05.2018 14:00:00 14,5 0,3 11 6 31 17 NNW 1020,4 48 0,0
18.05.2018 13:00:00 13,1 0,1 10 5 35 19 NW 1020,9 45 0,0
18.05.2018 12:00:00 13,2 1,2 12 6 29 15 NW 1021,0 43 0,0
18.05.2018 11:00:00 11,6 0,7 15 8 29 16 NW 1021,3 48 0,0
18.05.2018 10:00:00 11,9 1,5 12 6 29 16 WNW 1021,3 46 0,0
18.05.2018 09:00:00 10,8 1,9 13 7 34 18 NW 1021,5 50 0,0
18.05.2018 08:00:00 9,4 2,0 11 6 28 15 NNW 1021,4 50 0,0
18.05.2018 07:00:00 7,2 1,9 6 4 16 8 W 1021,6 50 0,0
18.05.2018 06:00:00 4,9 0,1 4 2 10 5 WNW 1021,8 50 0,0
18.05.2018 05:00:00 0,4 -0,6 3 2 6 4 NW 1021,8 50 0,0
18.05.2018 04:00:00 0,4 -1,0 0 0 4 2 N 1021,7 50 0,0
18.05.2018 03:00:00 0,7 -1,2 2 1 7 4 N 1021,4 50 0,0
18.05.2018 02:00:00 4,3 -0,9 4 2 14 8 NW 1021,1 50 0,0
18.05.2018 01:00:00 4,5 -0,9 5 3 9 5 NW 1020,7 50 0,0
18.05.2018 00:00:00 2,6 0,0 4 2 8 4 NW 1020,7 50 0,0
17.05.2018 23:00:00 2,6 0,0 0 0 3 2 N 1020,3 50 0,0
17.05.2018 22:00:00 4,6 0,9 0 0 3 2 N 1019,4 50 0,0
17.05.2018 21:00:00 9,5 1,4 0 0 15 8 N 1018,8 50 0,0
17.05.2018 20:00:00 14,5 -3,8 9 5 21 11 NNW 1018,2 50 0,0
17.05.2018 19:00:00 15,0 -3,9 10 5 25 13 NNW 1018,2 50 0,0
17.05.2018 18:00:00 15,2 -4,2 6 3 19 10 NNW 1018,5 50 0,0
17.05.2018 17:00:00 14,5 -0,8 5 3 23 13 N 1018,8 50 0,0
17.05.2018 16:00:00 13,3 0,3 8 4 27 15 NNW 1019,4 44 0,0
17.05.2018 15:00:00 13,4 2,6 7 4 21 11 N 1019,8 41 0,0
17.05.2018 14:00:00 10,6 1,9 5 3 18 10 NNW 1020,4 50 0,0
17.05.2018 13:00:00 9,5 1,4 11 6 22 12 NNW 1021,0 48 0,0
17.05.2018 12:00:00 9,4 1,8 7 4 24 13 N 1021,4 45 0,0
17.05.2018 11:00:00 8,0 3,3 7 4 14 8 NW 1021,9 47 0,0
17.05.2018 10:00:00 6,6 3,2 4 2 14 7 NW 1022,2 50 0,0
17.05.2018 09:00:00 5,6 3,4 5 3 10 6 NW 1022,7 46 0,6
17.05.2018 08:00:00 5,2 3,9 5 3 17 9 WNW 1023,1 18 0,7
17.05.2018 07:00:00 6,0 2,3 12 7 21 11 WNW 1023,1 50 0,0
17.05.2018 06:00:00 6,5 2,0 10 5 22 12 NW 1022,7 50 0,0
17.05.2018 05:00:00 6,4 1,9 9 5 21 11 WNW 1023,0 50 0,0
17.05.2018 04:00:00 5,8 3,5 6 3 25 13 NW 1022,9 50 0,5
17.05.2018 03:00:00 7,3 1,2 13 7 28 15 NW 1021,9 50 0,0
17.05.2018 02:00:00 7,6 1,9 12 6 23 12 NW 1021,9 50 0,0
17.05.2018 01:00:00 7,6 3,6 5 3 10 6 WNW 1022,5 50 0,4
17.05.2018 00:00:00 7,8 4,0 13 7 26 14 WNW 1022,2 19 0,3
16.05.2018 23:00:00 10,2 2,3 10 6 29 16 NW 1022,1 50 0,0
16.05.2018 22:00:00 11,3 1,8 16 8 34 18 NW 1021,2 50 0,0
16.05.2018 21:00:00 12,3 1,9 15 8 35 19 NW 1020,3 50 0,0
16.05.2018 20:00:00 13,1 2,9 14 7 42 23 NNW 1019,7 50 0,0
16.05.2018 19:00:00 14,1 4,7 16 9 41 22 NNW 1019,0 50 0,0
16.05.2018 18:00:00 15,6 6,3 20 11 35 19 NW 1018,1 50 0,0
16.05.2018 17:00:00 17,7 7,7 16 9 41 22 NW 1016,7 49 0,0
16.05.2018 16:00:00 20,7 8,3 19 10 41 22 WNW 1015,1 50 0,0
16.05.2018 15:00:00 23,2 9,9 16 8 32 18 NNW 1013,1 25 0,0
16.05.2018 14:00:00 26,8 6,8 4 2 15 8 ESE 1012,7 32 0,0
16.05.2018 13:00:00 26,3 6,8 5 3 17 9 SSE 1013,0 38 0,0
16.05.2018 12:00:00 25,3 6,5 4 2 11 6 S 1013,4 40 0,0
16.05.2018 11:00:00 24,0 9,6 0 0 12 7 N 1013,8 36 0,0
16.05.2018 10:00:00 20,2 8,5 5 3 10 5 SSE 1014,4 42 0,0
16.05.2018 09:00:00 16,5 8,2 3 2 9 5 SE 1014,9 46 0,0
16.05.2018 08:00:00 13,5 8,3 2 1 4 2 SW 1015,4 50 0,0
16.05.2018 07:00:00 9,9 7,7 0 0 2 1 N 1015,7 50 0,0
16.05.2018 06:00:00 7,0 6,3 0 0 4 2 N 1016,3 50 0,0
16.05.2018 05:00:00 5,7 5,1 0 0 2 1 N 1016,8 36 0,0
16.05.2018 04:00:00 6,2 5,3 0 0 3 2 N 1017,1 47 0,0
16.05.2018 03:00:00 6,5 5,3 0 0 4 2 N 1017,2 50 0,0
16.05.2018 02:00:00 7,8 6,1 0 0 3 2 N 1017,3 50 0,0
16.05.2018 01:00:00 8,9 6,7 0 0 9 5 N 1017,3 50 0,0
16.05.2018 00:00:00 11,0 7,5 0 0 8 4 N 1017,3 50 0,0
15.05.2018 23:00:00 12,4 7,7 0 0 7 4 N 1017,2 50 0,0
15.05.2018 22:00:00 15,6 8,1 2 1 10 5 E 1017,1 50 0,0
15.05.2018 21:00:00 20,4 7,7 2 1 8 5 E 1016,7 50 0,0
15.05.2018 20:00:00 23,9 6,2 2 1 22 12 E 1016,5 46 0,0
15.05.2018 19:00:00 24,8 6,0 6 3 22 12 E 1016,7 42 0,0

tt = Température de l'air
td = dewpoint
ff = Vitesse du vent
fx = gusts
dd = Direction du vent
ppp = reduced air pressure
vv = visibility
rr = Quantités de précipitations

stations d'obs. à proximité